Weather Roundup
Issued by NWS

Home | Current Version | Previous Version | Graphics & Text | Print | Product List | Glossary Off
Versions: 1 2 3 4 5 6 7 8 9 10 11 12 13 14 15 16 17 18 19 20 21 22 23 24 25 26 27 28 29 30 31 32 33 34 35 36 37 38 39 40 41 42 43 44 45 46 47 48 49 50

000
NZUS93 KARX 022210
HRRWXR

CURRENT HOURLY OBSERVATIONS ACROSS
MUCH OF THE UPPER MISSISSIPPI VALLEY
NATIONAL WEATHER SERVICE LA CROSSE WI
500 PM CDT WED SEP 02 2015


...SOUTHEAST MINNESOTA...


CITY           SKY/WX    TMP DP  RH WIND       PRES   REMARKS
ROCHESTER      MOSUNNY   82  72  71 S10       29.91F
ROCHESTER/MAYO FAIR      83  70  64 SW7       29.90S
WINONA         CLOUDY    81  70  69 CALM      29.89F
AUSTIN         PTSUNNY   84  72  65 SW6       29.89F
ALBERT LEA     MOSUNNY   84  70  61 S3        29.89S
DODGE CENTER   MOSUNNY   82  70  65 SW7       29.90F
PRESTON        CLOUDY    81  70  70 S8        29.92S
OWATONNA       SUNNY     84  72  65 S7        29.88F
FARIBAULT      MOSUNNY   84  72  65 S3        29.87F
$$

...ELSEWHERE IN MINNESOTA...


CITY           SKY/WX    TMP DP  RH WIND       PRES   REMARKS
MINNEAPOLIS    SUNNY     77  68  73 E10       29.87F
INTNL FALLS    MOSUNNY   83  65  54 VRB5      29.89F
DULUTH         PTSUNNY   71  64  78 E8        29.95S
RED WING       MOSUNNY   79  70  73 E9        29.87F
REDWOOD FALLS  MOSUNNY   86  73  65 E8        29.82F HX  93
MANKATO        PTSUNNY   84  73  70 SE8       29.86F HX  91
WORTHINGTON    MOSUNNY   84  72  65 S14       29.84F
FAIRMONT       SUNNY     84  70  61 S12       29.85S
$$

...SOUTHWEST WISCONSIN...


CITY           SKY/WX    TMP DP  RH WIND       PRES   REMARKS
LA CROSSE      CLOUDY    83  68  60 S8        29.89F
PRAIRIE DU CHI CLOUDY    83  66  57 S5        29.91F
BOSCOBEL       CLOUDY    87  67  51 S9        29.91F HX  90
LONE ROCK      SUNNY     85  66  53 SW12      29.93F
PLATTEVILLE    MOSUNNY   81  72  73 S10       29.95F
FORT MC COY    CLOUDY    81  65  58 S3        29.93S
CAMP DOUGLAS   PTSUNNY   82  70  65 SW8       29.92S
VIROQUA          N/A     80  68  65 S6        29.95R
WIS DELLS      MOSUNNY   85  63  47 SW12      29.94R
$$

...ELSEWHERE IN WISCONSIN...


CITY           SKY/WX    TMP DP  RH WIND       PRES   REMARKS
MILWAUKEE      PTSUNNY   86  67  52 SW13      29.94F
MADISON        PTSUNNY   84  69  60 VRB7      29.94F
GREEN BAY      PTSUNNY   85  70  60 S7        29.92F
EAU CLAIRE     PTSUNNY   73  68  84 E3        29.90F
BLACK RVR FLS  CLOUDY    84  66  53 S5        29.91S
MEDFORD        DRIZZLE   67  66  97 E7        29.93F
WAUSAU         LGT RAIN  72  68  87 E15       29.87F
WIS RAPIDS     MOSUNNY   86  65  49 S12       29.92F
MARSHFIELD     PTSUNNY   81  68  64 SE3       29.92F
RICE LAKE      PTSUNNY   70  67  89 SE6       29.94F
$$

...NORTHEAST IOWA...


CITY           SKY/WX    TMP DP  RH WIND       PRES   REMARKS
DECORAH        PTSUNNY   81  72  74 VRB6G13   29.91F
MASON CITY     SUNNY     85  71  63 SW15      29.89S HX  90
CHARLES CITY   CLOUDY    84  73  70 SW13      29.90S HX  91
OELWEIN        MOSUNNY   82  73  74 S8G16     29.92F
$$

...ELSEWHERE IN IOWA...


CITY           SKY/WX    TMP DP  RH WIND       PRES   REMARKS
DES MOINES     MOSUNNY   88  66  48 S12G22    29.88F HX  90
IOWA CITY      MOSUNNY   85  69  58 S13       29.94F
FORT DODGE     SUNNY     86  70  58 SW13      29.87F HX  90
$$

...NORTHERN ILLINOIS...


CITY           SKY/WX    TMP DP  RH WIND       PRES   REMARKS
CHICAGO-OHARE  PTSUNNY   88  67  49 SW12      29.95F HX  91
CHICAGO-MIDWAY PTSUNNY   90  67  46 SW14      29.95F HX  93
MOLINE         CLOUDY    86  70  58 S8        29.94F HX  90
ROCKFORD       CLOUDY    84  70  62 SW8       29.97F
PEORIA         PTSUNNY   90  67  46 SW5       29.97F HX  93
$$

NOTE: "FAIR" INDICATES FEW OR NO CLOUDS BELOW 12,000 FEET WITH NO
SIGNIFICANT WEATHER AND/OR OBSTRUCTIONS TO VISIBILITY. WIND
SPEEDS ARE IN MILES-PER-HOUR.



USA.gov is the U.S. government's official web portal to all federal, state and local government web resources and services.